Location: Ahausen
(50.4985°N, 8.2722°E)
Time: 10:27:13
(UTC+00:00)

Daily predictions for brighter satellites

Satellite Brightness Start Highest point End
(mag) Time Altitude Azimuth Time Altitude Azimuth Time Altitude Azimuth
Tsikada Rocket 4.2 17:55:39 10° NNW 18:01:50 79° W 18:07:59 10° S
NOSS 2-3 (E) 4.4 17:57:57 10° WSW 18:02:17 59° NW 18:07:36 10° NE
Cosmos 1844 Rocket 4.3 18:02:29 10° ESE 18:04:23 12° E 18:06:17 10° ENE
CZ-2C R/B 3.2 17:59:31 10° SSE 18:04:44 74° ENE 18:10:19 10° N
SJ 16-02 1.4 18:00:32 10° SSW 18:04:56 87° WNW 18:09:20 10° NNE
Cosmos 990 Rocket 4.0 18:00:13 10° S 18:05:16 60° ESE 18:10:21 10° NNE
Cosmos 2227 4.4 18:00:16 10° S 18:05:50 54° ESE 18:11:24 10° NE
ISS -1.5 18:05:30 10° SSE 18:06:27 11° SE 18:07:25 10° ESE
Abrixas rocket 2.7 18:05:50 10° SW 18:08:28 35° SSE 18:11:07 10° E
Cosmos 1943 3.3 18:03:36 10° NNW 18:09:18 89° ENE 18:14:59 10° SSE
Okean 2 Rocket 4.3 18:06:50 10° SE 18:10:20 23° E 18:13:50 10° NE
SJ-11-01 4.3 18:06:23 10° SSE 18:11:04 69° ENE 18:15:46 10° N
NOSS 8 (F) 4.2 18:08:26 10° SSW 18:11:35 59° SE 18:14:34 10° NE
Lacrosse 5 rocket 1.8 18:09:07 10° WSW 18:13:20 66° NNW 18:17:48 10° ENE
Okean-O 3.6 18:09:01 10° S 18:13:20 52° W 18:17:42 10° NNW
Ariane Rocket 3.6 18:11:56 10° SE 18:16:36 38° ENE 18:21:16 10° N
Cosmos 1437 2.5 18:14:23 10° N 18:17:24 84° ENE 18:20:24 10° SSE
NOSS 3-2 (A) 4.2 18:11:22 10° NW 18:18:27 57° NE 18:26:32 10° ESE
Meteor 1-21 4.2 18:14:33 10° NNW 18:20:13 84° E 18:25:49 10° SSE
NOSS 2-2 (C) 4.3 18:18:06 10° S 18:20:55 22° ESE 18:23:56 10° ENE
USA 116 3.3 18:18:41 10° NNE 18:22:02 73° ESE 18:25:43 10° S
Cosmos 2227 Rocket 4.2 18:17:27 10° WSW 18:22:23 30° NW 18:27:21 10° NNE
Cosmos 1300 Rocket 4.4 18:19:48 10° SSE 18:23:33 28° E 18:27:21 10° NNE
GP-B 4.1 18:19:25 10° N 18:23:45 53° W 18:28:04 10° SSW
CSL-04 Debris 4.3 18:19:07 10° SSE 18:24:30 79° WSW 18:29:56 10° NNW
Cosmos 1603 4.3 18:23:05 10° NW 18:28:41 60° WSW 18:34:12 10° SSE
YAOGAN 1 3.6 18:24:45 10° S 18:28:56 49° W 18:33:10 10° NNW
HJ-1C 3.6 18:28:01 10° S 18:31:18 73° WSW 18:34:37 10° NNW
Cosmos 1898 Rocket 3.5 18:27:11 10° SSW 18:32:21 88° ESE 18:37:36 10° NNE
Cosmos 1867 3.6 18:27:23 10° NW 18:32:54 87° NE 18:38:23 10° SE
Okean 2 4.2 18:29:33 10° NNW 18:33:40 55° W 18:37:43 10° S
CSL-04 Rocket 4.0 18:28:51 10° S 18:34:15 71° WSW 18:39:46 10° NNW
Cosmos 1536 Rocket 4.2 18:33:17 10° N 18:37:26 37° ENE 18:41:16 12° SE
USA 234 4.1 18:36:11 10° ENE 18:41:34 27° SE 18:46:58 10° S
Cosmos 1626 4.2 18:41:22 10° NE 18:42:59 12° ENE 18:43:18 12° ENE
Cosmos 858 Rocket 4.4 18:40:21 10° SSW 18:45:34 84° ESE 18:50:49 10° NNE
CREW DRAGON DEMO-1 DEB 3.0 18:43:06 10° W 18:46:07 68° N 18:47:59 21° E
Cosmos 1782 Rocket 4.0 18:45:20 10° SSW 18:49:43 67° WNW 18:54:10 10° N
Cosmos 1975 3.9 18:46:51 10° SSW 18:50:49 50° WNW 18:54:49 10° N
CZ-4 R/B 3.9 18:47:45 10° SSW 18:51:17 25° W 18:54:48 10° NW
Cosmos 2151 Rocket 4.0 18:47:13 10° SSE 18:51:21 39° E 18:55:33 10° NNE
Cosmos 1025 Rocket 3.0 18:47:11 10° N 18:51:32 64° ENE 18:55:53 10° SSE
Cosmos 372 Rocket 4.1 18:46:29 10° S 18:51:32 50° ESE 18:56:35 10° NNE
USA 186 1.6 18:48:48 10° SSE 18:51:50 77° ENE 18:55:05 10° N
NOSS 3-2 (C) 4.2 18:45:27 10° NW 18:52:35 59° NE 18:58:45 18° ESE
Cosmos 1072 Rocket 4.4 18:50:58 10° S 18:57:10 74° E 19:03:31 10° NNE
Nadezhda 4 Rocket 4.0 18:52:09 10° N 18:58:14 62° ENE 19:04:17 10° SSE
Cosmos 2082 Rocket 4.1 18:58:09 10° N 19:01:34 16° NNE 19:04:43 11° ENE
Cosmos 1937 Rocket 3.7 18:56:49 10° SSW 19:02:04 74° WNW 19:07:19 10° NNE
OBJECT-B 1.3 19:01:23 31° ESE 19:02:19 39° ENE 19:05:24 10° N
MOS 1 Rocket 3.3 18:58:30 10° N 19:03:04 76° WNW 19:07:24 10° SSW
Cosmos 2034 Rocket 4.1 18:57:14 10° SSE 19:03:26 57° E 19:09:38 10° NNE
Cosmos 1125 Rocket 4.3 19:00:31 10° SSE 19:05:03 30° E 19:09:38 10° NE
Exosat Rocket 4.3 19:01:35 10° SSE 19:06:19 29° ESE 19:10:37 10° NE
FREGAT/IRIS 2.0 19:05:31 36° SSE 19:06:25 83° E 19:09:03 10° N
Cosmos 1674 3.0 19:04:35 10° N 19:08:19 45° ENE 19:09:42 31° SE
COSMOS 2406 4.4 19:04:54 10° NNW 19:09:45 28° NE 19:12:17 20° E
Meteor 1-24 Rocket 4.4 19:07:09 10° N 19:12:07 34° ENE 19:14:10 26° ESE
In-Cosmos 22 4.2 19:10:04 10° NNW 19:15:22 79° W 19:20:41 10° S
Cosmos 468 4.5 19:11:20 10° NNW 19:16:43 85° ENE 19:20:21 21° SSE
NOSS 2-2 (E) 3.1 19:14:26 10° SW 19:17:57 90° W 19:22:07 10° NE
Resurs 01 Rocket 2.0 19:19:16 33° ESE 19:20:41 44° ENE 19:24:56 10° N
Cosmos 1707 3.9 19:17:08 10° NNW 19:20:48 43° W 19:24:27 10° SSW
H-2A R/B 3.6 19:16:52 10° SSW 19:21:21 34° W 19:25:57 10° NNW
ARGOS 4.2 19:17:19 10° S 19:22:27 45° W 19:27:37 10° NNW
ATLAS 2AS CENTAUR R/B 4.1 19:24:48 22° E 19:24:48 22° E 19:29:03 10° ENE
CZ-2C R/B 2.6 19:17:59 10° NNE 19:23:32 79° ESE 19:29:08 10° S
SJ-6B 3.1 19:21:48 16° S 19:24:38 62° WSW 19:28:23 10° NNW
Lacrosse 4 Rocket 3.6 19:22:42 10° N 19:24:41 13° NNE 19:25:54 12° NE
KORONAS-FOTON 3.8 19:22:04 10° N 19:25:59 69° ENE 19:27:14 41° SSE
NOSS 2-2 (D) 3.0 19:22:53 10° SW 19:26:25 87° SE 19:30:29 10° NE
Cosmos 1048 Rocket 4.1 19:25:34 10° NNW 19:30:54 80° WSW 19:34:10 24° SSE
Cosmos 1766 4.2 19:33:39 32° ENE 19:33:39 32° ENE 19:36:22 10° NNE
ATLAS CENTAUR R/B 4.0 19:31:34 10° NW 19:33:09 12° NNW 19:34:43 10° N
CENTAUR R/B 3.1 19:25:36 10° NW 19:33:31 80° NE 19:38:32 29° SE
SPOT 1/Viking Rocket 4.4 19:33:46 29° E 19:34:37 31° ENE 19:39:08 10° N
Cosmos 1844 3.9 19:29:53 10° S 19:35:18 47° ESE 19:40:42 10° NE
IGS 5A 4.4 19:37:09 32° ENE 19:37:09 32° ENE 19:40:41 10° N
Cosmos 1634 Rocket 4.2 19:34:23 29° SE 19:37:05 47° E 19:42:58 10° NNE
ARIANE 5 R/B 3.1 19:37:43 39° ENE 19:37:58 39° ENE 19:42:01 10° N
SWAS 4.3 19:33:45 10° NNW 19:38:05 80° ENE 19:39:03 52° SE
ATLAS 3B R/B 3.3 19:33:05 10° NW 19:39:33 44° NNE 19:42:49 28° E
Cosmos 1269 Rocket 4.3 19:34:55 10° NNW 19:40:08 52° ENE 19:41:30 41° ESE
Cosmos 2263 Rocket 3.5 19:35:04 10° WSW 19:40:18 40° NW 19:45:35 10° NNE
USA 238 DEB 4.0 19:34:12 10° NW 19:41:23 74° SW 19:45:38 28° SSE
USA 238 3.9 19:34:18 10° NW 19:41:29 74° SW 19:45:43 28° SSE
Cosmos 2285 Rocket 4.1 19:35:34 10° S 19:41:38 53° ESE 19:47:47 10° NNE
ISS -2.3 19:39:22 10° SW 19:41:15 28° SSW 19:41:15 28° SSW
MetOp-B 4.3 19:41:11 40° ESE 19:42:39 53° ENE 19:47:52 10° N
Abrixas rocket 3.3 19:40:44 10° W 19:42:31 32° WSW 19:42:31 32° WSW
SJ 16-02 4.5 19:41:43 10° W 19:44:13 15° NW 19:46:44 10° NNW
Cosmos 1844 Rocket 2.5 19:41:41 10° SSW 19:47:12 69° ESE 19:52:46 10° NNE
Okean 2 Rocket 4.2 19:43:49 10° SSW 19:48:09 45° WNW 19:52:28 10° N
Spot 2 Rocket 3.9 19:48:08 41° E 19:48:41 43° ENE 19:53:27 10° N
Cosmos 1627 Rocket 4.5 19:44:07 10° N 19:50:32 76° E 19:53:33 34° SSE
Okean 1 Rocket 2.9 19:51:22 52° SSE 19:52:22 75° E 19:56:53 10° NNE
Lacrosse 5 rocket 2.8 19:49:03 10° WNW 19:53:06 36° N 19:55:13 23° NE
Ariane Rocket 4.4 19:50:57 10° SSW 19:55:34 35° W 20:00:15 10° NNW
Cosmos 1092 Rocket 4.0 19:50:30 10° N 19:56:41 82° W 20:00:15 27° S
Meteor 1-15 Rocket 4.2 19:53:56 10° SSW 19:59:33 81° WNW 20:05:19 10° N
Resurs 1-3 4.1 19:57:58 33° SSW 19:59:43 55° W 20:04:04 10° NNW
Cosmos 2195 Rocket 4.4 19:53:41 10° N 20:00:01 86° W 20:03:07 32° S
Cosmos 494 Rocket 4.2 19:58:39 10° NNW 20:03:53 65° WSW 20:05:36 41° S
Cosmos 2026 Rocket 3.9 19:57:50 10° N 20:04:14 88° E 20:06:55 38° S
CZ-2C R/B 3.5 20:00:21 10° NNE 20:04:50 87° ESE 20:05:30 65° S
Cosmos 2298 Rocket 4.4 20:00:39 10° SW 20:05:57 64° WNW 20:11:17 10° NNE
SPOT 3 Rocket 3.9 20:03:38 30° S 20:06:02 59° WSW 20:11:10 10° NNW
Cosmos 1833 Rocket 3.1 20:01:38 10° NNW 20:07:05 46° NE 20:07:47 44° ENE
NOSS 2-2 (C) 4.4 20:07:42 10° WSW 20:11:09 43° NW 20:15:13 10° NE
Cosmos 2251 Rocket 4.5 20:07:52 10° N 20:12:45 33° NE 20:12:49 33° NE
Cosmos 1428 Rocket 4.5 20:10:15 10° NNW 20:16:35 81° W 20:18:51 42° S
Terra 3.2 20:19:12 28° NE 20:19:12 28° NE 20:22:24 10° N
Cosmos 1626 3.0 20:15:01 10° NNW 20:17:51 48° NW 20:17:51 48° NW
Cosmos 1892 Rocket 3.8 20:16:28 10° N 20:20:06 60° N 20:20:06 60° N
Cosmos 2279 Rocket 3.9 20:20:51 60° ESE 20:21:19 62° E 20:27:30 10° NNE
Cosmos 2142 Rocket 4.4 20:21:19 58° SSE 20:22:30 72° E 20:28:44 10° NNE
USA 234 3.1 20:19:22 13° ENE 20:25:17 76° SE 20:31:51 10° SW
Meteor 2-5 Rocket 4.3 20:23:03 10° NNW 20:28:32 53° W 20:30:35 36° SSW
OBJECT-B 3.6 20:34:35 15° W 20:34:53 15° W 20:36:48 10° NW
SPOT 5 3.4 20:40:10 54° NNE 20:40:10 54° NNE 20:44:38 10° N
Meteor 1-22 Rocket 4.5 20:43:03 48° SW 20:44:40 71° WNW 20:50:44 10° N
Cosmos 1125 Rocket 4.4 20:41:47 10° SW 20:46:55 49° WNW 20:52:06 10° NNE
Cosmos 2082 Rocket 2.6 20:41:30 10° NNW 20:46:33 51° NE 20:46:33 51° NE
Okean 1-7 Rocket 4.4 20:43:10 10° NNW 20:46:41 51° NNW 20:46:41 51° NNW
COSMOS 2406 3.3 20:48:56 10° NNW 20:54:20 69° W 20:54:20 69° W
ERS-1 Rocket 3.4 20:57:24 57° NNW 20:57:24 57° NNW 21:01:26 10° NNW
Resurs 01 Rocket 3.5 20:56:51 24° WSW 20:57:21 24° W 21:01:01 10° NW
Cosmos 2098 Rocket 4.0 20:56:14 10° N 21:03:33 84° W 21:03:50 81° SW
Lacrosse 4 Rocket 3.4 21:00:16 10° NNW 21:02:11 26° NNW 21:02:11 26° NNW
Cosmos 2266 Rocket 4.0 21:00:06 10° N 21:05:35 73° N 21:05:35 73° N
Cosmos 1655 Rocket 4.1 21:06:18 10° NNW 21:12:30 71° W 21:12:30 71° W
ATLAS 2AS CENTAUR R/B 2.9 21:11:59 68° SSW 21:13:09 82° SE 21:21:02 10° NE
SPOT 1/Viking Rocket 4.4 21:14:24 44° W 21:14:24 44° W 21:18:52 10° NNW
Cosmos 2278 Rocket 3.8 21:22:33 25° NE 21:22:33 25° NE 21:24:50 10° NNE
CENTAUR R/B 4.1 21:16:44 10° NW 21:23:57 36° WSW 21:25:44 33° SW
ATLAS 3B R/B 2.9 21:23:51 10° NW 21:30:03 63° W 21:30:03 63° W
Lacrosse 5 rocket 3.6 21:28:43 10° WNW 21:30:51 25° NW 21:30:51 25° NW
Cosmos 1833 Rocket 4.1 21:45:47 10° NW 21:49:28 32° WNW 21:49:28 32° WNW
Terra 3.8 21:58:07 26° NW 21:58:07 26° NW 22:00:25 10° NNW
USA 234 3.6 22:01:50 10° ENE 22:08:14 59° NNW 22:14:38 10° W
Cosmos 2082 Rocket 4.1 22:25:59 10° NW 22:28:23 22° WNW 22:28:23 22° WNW
Cosmos 1943 Rocket 4.5 22:35:45 16° NE 22:35:45 16° NE 22:36:50 10° NE
COSMOS 2455 4.5 22:35:51 27° NNE 22:35:51 27° NNE 22:38:29 10° NE
Cosmos 2369 Rocket 4.4 22:59:19 18° NE 22:59:19 18° NE 23:00:44 10° NE
CZ-4C R/B 4.1 23:02:00 26° NE 23:02:00 26° NE 23:04:46 10° NE
Cosmos 2278 Rocket 4.0 23:04:23 26° NNW 23:04:23 26° NNW 23:08:36 10° NNE
ATLAS 2AS CENTAUR R/B 3.9 22:59:08 17° W 23:04:54 43° NNW 23:12:13 10° NE
NOSS 3-1 (C) 4.3 23:22:59 10° NW 23:28:48 58° N 23:28:48 58° N
Cosmos 2227 Rocket 4.4 23:37:51 10° NNW 23:42:01 20° NE 23:43:29 19° ENE
USA 234 3.9 23:44:28 10° ENE 23:54:28 25° WNW 23:57:03 10° WNW
